Voltar ao catálogo

USA 441

AtivoMilitarVLEO
NORAD 62340·PAYLOAD·🇺🇸 United States

Lançado Dec 17, 2024 de Vandenberg Space Force Base

Loading…

Próximas Passagens (próximas 24 horas)

TLE

ObsoletoSource: Mike McCants

Época: Aug 12, 2026, 22:20 UTC

1 62340U 24243A   26224.93124684 0.00000000  00000-0  00000-0 0    06
2 62340  70.0230 154.3919 0003000 187.8533 172.1466 14.96713884    07

Acompanhe USA 441 em tempo real com AllMySat

Download on the App Store